Heubes-Wetterstation in 44289 Dortmund
Heubes-Wetterstation

Messwerte der letzten 60 Minuten im Minuten-Intervall (Wetterstation 44289 Dortmund)

Datum & Uhrzeit Temp. Feucht. Wind-Ø Böen Sekt.  Regen Rate Luftdruck
15.12.2019 - 08:386.7 °C89%14 km/h 32 km/h SW0.0 mm 0.0 mm 994.8 hPa, gleichbleibend
15.12.2019 - 08:376.7 °C89.5%14 km/h 23 km/h SW0.0 mm 0.0 mm 994.8 hPa, gleichbleibend
15.12.2019 - 08:366.7 °C90%14 km/h 16 km/h SW0.0 mm 0.0 mm 994.8 hPa, gleichbleibend
15.12.2019 - 08:356.8 °C90%16 km/h 16 km/h SW0.0 mm 0.0 mm 994.7 hPa, langsam steigend
15.12.2019 - 08:346.7 °C90%16 km/h 21 km/h W-SW0.0 mm 0.0 mm 994.6 hPa, langsam steigend
15.12.2019 - 08:336.7 °C90%16 km/h 21 km/h W-SW0.0 mm 0.0 mm 994.5 hPa, gleichbleibend
15.12.2019 - 08:326.7 °C90%16 km/h 21 km/h W-SW0.0 mm 0.0 mm 994.5 hPa, langsam steigend
15.12.2019 - 08:316.7 °C90%16 km/h 18 km/h W-SW0.0 mm 0.0 mm 994.4 hPa, langsam fallend
15.12.2019 - 08:306.7 °C90%16 km/h 24 km/h SW0.0 mm 0.0 mm 994.5 hPa, gleichbleibend
15.12.2019 - 08:296.7 °C90%16 km/h 23 km/h W-SW0.0 mm 0.0 mm 994.5 hPa, langsam steigend
15.12.2019 - 08:286.7 °C90%16 km/h 32 km/h SW0.0 mm 0.0 mm 994.4 hPa, gleichbleibend
15.12.2019 - 08:276.7 °C90%17 km/h 27 km/h W-SW0.0 mm 0.0 mm 994.4 hPa, gleichbleibend
15.12.2019 - 08:266.7 °C90%18 km/h 18 km/h SW0.0 mm 0.0 mm 994.4 hPa, langsam steigend
15.12.2019 - 08:256.7 °C90%18 km/h 31 km/h W-SW0.0 mm 0.0 mm 994.3 hPa, langsam fallend
15.12.2019 - 08:246.7 °C90%18 km/h 18 km/h SW0.0 mm 0.0 mm 994.4 hPa, gleichbleibend
15.12.2019 - 08:236.7 °C91%18 km/h 24 km/h W-SW0.0 mm 0.0 mm 994.4 hPa, gleichbleibend
15.12.2019 - 08:226.7 °C91%19 km/h 31 km/h SW0.0 mm 0.0 mm 994.4 hPa, gleichbleibend
15.12.2019 - 08:216.7 °C91%19 km/h 26 km/h W-SW0.0 mm 0.0 mm 994.4 hPa, langsam steigend
15.12.2019 - 08:206.7 °C91%19 km/h 23 km/h S-SW0.0 mm 0.0 mm 994.3 hPa, gleichbleibend
15.12.2019 - 08:196.7 °C91%18 km/h 26 km/h SW0.0 mm 0.0 mm 994.2 hPa, gleichbleibend
15.12.2019 - 08:186.7 °C91%18 km/h 26 km/h SW0.0 mm 0.0 mm 994.2 hPa, gleichbleibend
15.12.2019 - 08:176.7 °C91%18 km/h 29 km/h SW0.0 mm 0.0 mm 994.2 hPa, gleichbleibend
15.12.2019 - 08:166.7 °C91%18 km/h 29 km/h SW0.0 mm 0.0 mm 994.2 hPa, gleichbleibend
15.12.2019 - 08:156.7 °C91%18 km/h 21 km/h W-SW0.0 mm 0.0 mm 994.3 hPa, langsam fallend
15.12.2019 - 08:146.7 °C91%17 km/h 31 km/h SW0.2 mm 0.0 mm 994.6 hPa, langsam fallend
15.12.2019 - 08:136.7 °C91%16 km/h 29 km/h SW0.0 mm 0.0 mm 994.7 hPa, langsam steigend
15.12.2019 - 08:126.7 °C91%16 km/h 26 km/h S0.0 mm 0.0 mm 994.6 hPa, langsam steigend
15.12.2019 - 08:116.7 °C91%16 km/h 34 km/h S-SW0.0 mm 0.0 mm 994.5 hPa, langsam fallend
15.12.2019 - 08:106.7 °C91%16 km/h 26 km/h W-SW0.0 mm 0.8 mm 994.6 hPa, langsam fallend
15.12.2019 - 08:096.7 °C91%16 km/h 24 km/h W-SW0.0 mm 0.8 mm 994.7 hPa, gleichbleibend
15.12.2019 - 08:086.7 °C91%16 km/h 23 km/h S-SO0.0 mm 0.8 mm 994.8 hPa, langsam fallend
15.12.2019 - 08:076.7 °C91%16 km/h 27 km/h S-SW0.0 mm 0.8 mm 994.9 hPa, langsam steigend
15.12.2019 - 08:066.7 °C91%16 km/h 34 km/h W-SW0.0 mm 1.0 mm 994.8 hPa, gleichbleibend
15.12.2019 - 08:056.7 °C91%16 km/h 26 km/h S-SW0.0 mm 1.0 mm 994.8 hPa, gleichbleibend
15.12.2019 - 08:046.7 °C91%16 km/h 40 km/h W-SW0.0 mm 1.2 mm 994.8 hPa, gleichbleibend
15.12.2019 - 08:036.8 °C91%16 km/h 19 km/h SW0.0 mm 1.4 mm 994.8 hPa, langsam steigend
15.12.2019 - 08:026.8 °C91%15 km/h 27 km/h S-SW0.0 mm 1.4 mm 994.6 hPa, gleichbleibend
15.12.2019 - 08:016.8 °C91%16 km/h 27 km/h W-SW0.0 mm 1.6 mm 994.6 hPa, langsam fallend
15.12.2019 - 08:006.8 °C91%16 km/h 31 km/h W-SW0.0 mm 1.6 mm 994.8 hPa, gleichbleibend
15.12.2019 - 07:596.8 °C91%16 km/h 18 km/h SW0.0 mm 1.6 mm 994.8 hPa, gleichbleibend
15.12.2019 - 07:586.8 °C90%17 km/h 24 km/h S-SW0.0 mm 1.6 mm 994.8 hPa, gleichbleibend
15.12.2019 - 07:576.8 °C90%18 km/h 19 km/h W-SW0.0 mm 1.6 mm 994.8 hPa, gleichbleibend
15.12.2019 - 07:566.8 °C90%18 km/h 32 km/h W0.0 mm 1.6 mm 994.7 hPa, gleichbleibend
15.12.2019 - 07:556.9 °C90%18 km/h 29 km/h SW0.0 mm 1.6 mm 994.7 hPa, gleichbleibend
15.12.2019 - 07:546.9 °C90%19 km/h 16 km/h SW0.2 mm 1.6 mm 994.8 hPa, gleichbleibend
15.12.2019 - 07:536.9 °C90%20 km/h 21 km/h W0.0 mm 1.6 mm 994.8 hPa, gleichbleibend
15.12.2019 - 07:527.0 °C90%21 km/h 19 km/h W0.0 mm 1.8 mm 994.7 hPa, gleichbleibend
15.12.2019 - 07:517.0 °C90%20 km/h 35 km/h W-SW0.0 mm 2.2 mm 994.7 hPa, gleichbleibend
15.12.2019 - 07:507.1 °C90%19 km/h 34 km/h SW0.0 mm 2.8 mm 994.8 hPa, gleichbleibend
15.12.2019 - 07:497.1 °C90%20 km/h 26 km/h SW0.0 mm 2.8 mm 994.7 hPa, langsam steigend
15.12.2019 - 07:487.2 °C90%21 km/h 34 km/h SW0.0 mm 2.8 mm 994.6 hPa, gleichbleibend
15.12.2019 - 07:477.2 °C90%21 km/h 40 km/h SW0.0 mm 2.8 mm 994.6 hPa, gleichbleibend
15.12.2019 - 07:467.2 °C90%22 km/h 34 km/h SW0.2 mm 2.8 mm 994.6 hPa, gleichbleibend
15.12.2019 - 07:457.3 °C90%23 km/h 40 km/h W-SW0.0 mm 1.4 mm 994.6 hPa, langsam steigend
15.12.2019 - 07:447.3 °C90%23 km/h 37 km/h W-SW0.0 mm 1.4 mm 994.5 hPa, gleichbleibend
15.12.2019 - 07:437.4 °C89.5%22 km/h 27 km/h W-SW0.0 mm 1.4 mm 994.5 hPa, gleichbleibend
15.12.2019 - 07:427.4 °C90%22 km/h 26 km/h S-SW0.2 mm 1.4 mm 994.5 hPa, langsam steigend
15.12.2019 - 07:417.5 °C89%23 km/h 27 km/h SW0.0 mm 1.4 mm 994.4 hPa, gleichbleibend
15.12.2019 - 07:407.6 °C89%23 km/h 32 km/h W-SW0.0 mm 1.4 mm 994.4 hPa, langsam steigend
15.12.2019 - 07:397.7 °C89%23 km/h 45 km/h W0.0 mm 1.6 mm 994.3 hPa, gleichbleibend